sat.trackr.live / text

‹ back to catalog

OCO 2

NORAD 40059 · 2014-035A

PAYLOAD ACTIVE UNKNOWN

§ Identity

Operator
Country
US
Launch date
2014-07-02
Launch site
AFWTR
Launch vehicle
Mass (kg)
RCS (m²)
1.15

Purposes: science

External: N2YO · Heavens-Above · Gunter

§ Orbital elements

Epoch: 2026-05-25T03:37:27.537888Z

Period
98.83 min
Inclination
98.2011°
Eccentricity
0.0001416
Mean motion
14.57088591 rev/d
Perigee alt
701.6 km
Apogee alt
703.6 km
Semi-major
7,080.7 km
B*
8.9969e-5
RAAN
86.7966°
Arg perigee
88.1016°
Mean anomaly
272.0345°
Rev number
63,269

§ Raw data

OCO 21 40059U 14035A   26145.15101317  .00000360  00000+0  89969-4 0  99912 40059  98.2011  86.7966 0001416  88.1016 272.0345 14.57088591632696

JSON: /api/v1/satellites/40059 · /tle

For live sub-satellite position, see the globe view (requires WebGL).

§ Visibility from observer

Set your observer location to see the next 7 days of passes ≥ 10°. The values pass through the URL so the page stays shareable.

No JS? Fill the form by hand. The geolocation button needs JavaScript.